#timestamp,LO_Frequency,Hit,StdDev 
1586962815.8,286046997.7,N
1586962835.6,286046997.7,N
1586962855.4,286046999.5,N
1586962875.3,286047000.3,N
1586962895.1,286047000.6,N
1586962915.9,286046997.1,N
1586962935.7,286046998.5,N
1586962955.5,286046996.5,N
1586962975.4,286046997.3,N
1586962995.2,286046996.7,N
1586963015.0,286046999.3,N
1586963015.9,286046999.3,N
1586963035.8,286046997.2,N
1586963055.6,286046999.0,N
1586963075.4,286046996.7,N
1586963095.3,286046998.0,N
1586963115.1,286046994.9,N
1586963135.9,286046997.9,N
1586963155.7,286046997.7,N
1586963175.5,286046998.4,N
1586963195.4,286046996.6,N
1586963215.2,286046995.2,Y
1586963235.1,286046995.0,P
1586963236.0,286046995.0,P
1586963255.8,286046995.2,P
1586963275.6,286046996.2,N
1586963325.5,286046996.8,E
1586963335.4,286046997.3,N
1586963355.3,286046997.7,P
1586963375.1,286046997.3,P
1586963376.0,286046997.3,Y
1586963395.8,286046997.3,P
1586963415.7,286046997.1,P
1586963435.5,286046997.5,P
1586963455.4,286046997.7,Y
1586963475.2,286046998.7,P
1586963495.0,286046997.1,P
1586963495.9,286046997.1,P
1586963515.8,286046998.8,N
1586963535.6,286046997.2,Y
1586963555.4,286046998.2,P
1586963575.3,286046996.7,P
1586963595.1,286046997.0,P
1586963615.9,286046996.2,Y
1586963635.4,286046994.2,P
1586963655.2,286046996.0,N
1586963675.1,286046995.6,P
1586963676.0,286046995.6,Y
1586963695.8,286047004.0,P
1586963715.6,286047005.5,N
1586963735.5,286047003.1,N
1586963755.3,286047005.8,N
1586963775.2,286047004.2,N
1586963795.9,286047004.2,N
1586963815.7,286047002.6,N
1586963835.6,286047001.6,N
1586963855.4,286047004.2,N
1586963875.2,286047003.8,N
1586963895.1,286047002.5,N
1586963896.0,286047002.5,N
1586963915.8,286047000.1,N
1586963935.7,286047002.1,N
1586963955.5,286047004.4,N
1586963975.3,286047003.9,N
1586963995.2,286047002.5,N
1586964015.0,286047002.6,N
1586964015.9,286047002.6,N
1586964035.7,286047001.4,N
1586964055.6,286046999.7,N
1586964075.4,286047003.9,N
1586964095.3,286047003.2,N
1586964115.1,286047001.5,N
1586964116.0,286047001.5,N
1586964135.8,286046999.8,N
1586964155.7,286047002.6,N
1586964175.5,286047000.0,N
1586964195.3,286047000.2,N
1586964215.2,286046999.7,N
1586964235.0,286047000.2,N
1586964235.9,286047000.2,N
1586964255.8,286047002.2,N
1586964275.6,286046999.8,N
1586964295.4,286047001.2,N
1586964315.3,286047001.1,N
1586964335.1,286047000.3,N
1586964355.8,286047001.4,N
1586964375.7,286047003.3,N
1586964395.5,286047004.3,N
1586964415.4,286047003.5,N
1586964435.2,286047001.4,N
1586964455.0,286047001.6,N
1586964455.9,286047001.6,N
1586964475.8,286047004.4,Y
1586964495.6,286047000.2,P
1586964515.5,286047002.4,P
1586964535.3,286047000.8,N
1586964555.1,286047000.3,N
1586964575.9,286047002.3,N
1586964595.7,286047001.7,N
1586964615.5,286047002.3,N
1586964635.4,286047004.1,Y
1586964655.2,286047002.2,P
1586964675.1,286047001.9,P
1586964676.0,286047001.9,P
1586964695.8,286047000.1,N
1586964715.6,286047002.2,N
1586964735.5,286047000.2,N
1586964755.3,286046999.8,N
1586964775.1,286046999.7,N
1586964795.9,286047000.9,N
1586964815.7,286046996.8,Y
1586964835.6,286046996.6,P
1586964855.4,286046997.8,N
1586964875.2,286046997.8,N
1586964895.1,286046995.2,N
1586964896.0,286046995.2,N
1586964915.8,286046999.1,N
1586964935.6,286046997.3,N
1586964955.5,286046996.5,N
1586964975.3,286046999.2,N
1586964995.2,286047000.0,N
1586965015.0,286046999.7,N
1586965015.9,286046999.7,N
1586965035.8,286047001.5,N
1586965055.6,286047001.6,N
1586965075.4,286047003.2,N
1586965095.3,286047003.3,N
1586965115.1,286047007.5,Y
1586965135.8,286047007.2,P
1586965155.7,286047005.2,N
1586965175.5,286047005.0,N
1586965195.4,286047006.0,N
1586965215.2,286047004.1,N
1586965235.0,286047002.4,N
1586965235.9,286047002.4,N
1586965255.8,286047001.7,N
1586965275.6,286047005.9,N
1586965295.4,286047003.4,N
1586965315.3,286047002.3,N
1586965335.1,286047003.4,N
1586965355.9,286047003.2,N
1586965375.7,286047005.2,N
1586965395.5,286047007.1,Y
1586965415.4,286047001.4,P
1586965435.2,286047005.8,P
1586965455.1,286047004.6,N
1586965456.0,286047004.6,N
1586965475.8,286047008.6,Y
1586965495.6,286047007.6,P
1586965515.5,286047005.3,N
1586965535.3,286047004.8,P
1586965555.1,286047005.5,Y
1586965605.9,286047003.1,E
1586965615.8,286047004.2,N
1586965635.7,286047001.0,P
1586965655.5,286047000.3,N
1586965675.4,286047000.8,N
1586965695.2,286047002.2,N
1586965715.0,286047001.8,N
1586965715.9,286047001.8,N
1586965735.8,286047002.0,N
1586965755.6,286046998.7,N
1586965775.4,286046998.4,N
1586965795.3,286046999.0,N
1586965815.1,286047001.2,N
1586965835.9,286047001.2,N
1586965855.7,286046998.6,N
1586965875.5,286047000.0,N
1586965895.4,286047002.4,N
1586965915.2,286047003.9,N
1586965935.0,286047001.5,N
1586965935.9,286047001.5,N
1586965955.8,286047004.4,N
1586965975.6,286047001.7,N
1586965995.5,286047003.5,N
1586966015.3,286047003.3,N
1586966035.1,286047003.2,N
1586966055.9,286047004.6,N
1586966075.7,286047005.4,Y
1586966095.5,286047004.7,P
1586966115.4,286047005.8,P
1586966135.2,286047005.2,N
1586966155.1,286047004.6,N
1586966156.0,286047004.6,Y
1586966175.8,286047002.5,P
1586966195.6,286047001.8,N
1586966215.5,286047001.5,N
1586966235.3,286047003.2,N
1586966255.2,286047003.1,N
1586966275.9,286047001.3,N
1586966295.7,286047004.2,Y
1586966315.6,286047000.4,P
1586966335.4,286046999.8,N
1586966355.2,286046999.8,N
1586966375.1,286047001.8,N
1586966376.0,286047001.8,N
1586966395.8,286046999.8,N
